Rochester, NY

5:35 PM EDT on October 20, 2019 (GMT -0400)
Greater Rochester International

Weather History for KROC - May, 2019

Change the Weather History Date:

Wednesday, May 8, 2019

  Actual Average Record
Temperature  
Mean Temperature 48 °F 54 °F  
Max Temperature 54 °F 65 °F 90 °F (2015)
Min Temperature 42 °F 44 °F 29 °F (1974)
Degree Days  
Heating Degree Days 17 11  
Month to date heating degree days 95 97  
Since 1 July heating degree days 6219 6400  
Cooling Degree Days 0 0  
Month to date cooling degree days 0 0  
Year to date cooling degree days 0 4  
Moisture  
Dew Point 28 °F    
Average Humidity 58    
Maximum Humidity 89    
Minimum Humidity 26    
Precipitation  
Precipitation 0.00 in 0.09 in 0.90 in (1971)
Month to date precipitation 0.98 0.72  
Year to date precipitation 10.91 10.31  
Snow  
Snow 0.00 in 0.00 in 0.50 in (1977)
Month to date snowfall 0.0 0.2  
Since 1 July snowfall 97.1 99.3  
Snow Depth 0.00 in    
Sea Level Pressure  
Sea Level Pressure 30.35 in    
Wind  
Wind Speed 12 mph (ENE)    
Max Wind Speed 21 mph    
Max Gust Speed 26 mph    
Visibility 10 miles    
Events      
T = Trace of Precipitation, MM = Missing Value Source: NWS Daily Summary

Daily Weather History Graph

Daily Weather History Graph

Search for Another Location

Airport or City:

Astronomy

May. 08, 2019 Rise Set
Actual Time 5:55 AM EDT 8:19 PM EDT
Civil Twilight 5:23 AM EDT 8:51 PM EDT
Nautical Twilight 4:43 AM EDT 9:31 PM EDT
Astronomical Twilight 3:59 AM EDT 10:16 PM EDT
Moon 8:48 AM EDT (5/8) No Moon Set
Length of Visible Light 15h 28m
Length of Day
14h 24m
Waxing Crescent, 15% of the Moon is Illuminated
May 8
Waxing Crescent
May 11
First Quarter
May 18
Full
May 26
Last Quarter
Jun 3
New

Hourly Weather History & Observations

Time (EDT) Temp. Windchill Dew Point Humidity Pressure Visibility Wind Dir Wind Speed Gust Speed Precip Events Conditions
12:54 AM 45.0 °F - 41.0 °F 86% 30.28 in 10.0 mi Calm Calm - N/A   Clear
1:54 AM 45.0 °F 41.8 °F 39.9 °F 82% 30.28 in 10.0 mi NE 5.8 mph - N/A   Clear
2:54 AM 44.1 °F 40.1 °F 37.0 °F 76% 30.30 in 10.0 mi ENE 6.9 mph - N/A   Partly Cloudy
3:54 AM 44.1 °F 38.1 °F 36.0 °F 73% 30.31 in 10.0 mi ENE 11.5 mph - N/A   Mostly Cloudy
4:54 AM 43.0 °F 37.2 °F 34.0 °F 71% 30.32 in 10.0 mi ENE 10.4 mph - N/A   Scattered Clouds
5:54 AM 43.0 °F 37.2 °F 32.0 °F 65% 30.34 in 10.0 mi ENE 10.4 mph - N/A   Mostly Cloudy
6:54 AM 44.1 °F 37.7 °F 32.0 °F 63% 30.36 in 10.0 mi ENE 12.7 mph - N/A   Mostly Cloudy
7:54 AM 45.0 °F 37.6 °F 32.0 °F 60% 30.40 in 10.0 mi ENE 17.3 mph - N/A   Scattered Clouds
8:54 AM 46.0 °F 39.9 °F 30.0 °F 54% 30.43 in 10.0 mi ENE 13.8 mph 21.9 mph N/A   Partly Cloudy
9:54 AM 48.0 °F - 28.9 °F 48% 30.43 in 10.0 mi ENE 16.1 mph - N/A   Partly Cloudy
10:54 AM 48.9 °F - 28.0 °F 44% 30.43 in 10.0 mi NE 16.1 mph - N/A   Partly Cloudy
11:54 AM 50.0 °F - 27.0 °F 41% 30.42 in 10.0 mi NE 13.8 mph - N/A   Partly Cloudy
12:54 PM 50.0 °F - 24.1 °F 36% 30.40 in 10.0 mi East 16.1 mph - N/A   Partly Cloudy
1:54 PM 52.0 °F - 26.1 °F 37% 30.40 in 10.0 mi East 10.4 mph 20.7 mph N/A   Partly Cloudy
2:54 PM 53.1 °F - 24.1 °F 32% 30.36 in 10.0 mi NE 18.4 mph - N/A   Partly Cloudy
3:54 PM 53.1 °F - 21.9 °F 30% 30.36 in 10.0 mi ENE 12.7 mph - N/A   Partly Cloudy
4:54 PM 53.1 °F - 19.9 °F 27% 30.35 in 10.0 mi East 12.7 mph - N/A   Partly Cloudy
5:54 PM 54.0 °F - 19.9 °F 26% 30.34 in 10.0 mi NE 15.0 mph - N/A   Partly Cloudy
6:54 PM 53.1 °F - 19.0 °F 26% 30.33 in 10.0 mi ENE 12.7 mph - N/A   Partly Cloudy
7:54 PM 50.0 °F - 21.9 °F 33% 30.32 in 10.0 mi East 12.7 mph - N/A   Partly Cloudy
8:54 PM 48.0 °F - 24.1 °F 39% 30.32 in 10.0 mi ENE 9.2 mph - N/A   Partly Cloudy
9:54 PM 48.0 °F - 24.1 °F 39% 30.32 in 10.0 mi East 6.9 mph - N/A   Clear
10:54 PM 46.0 °F 43.1 °F 25.0 °F 44% 30.30 in 10.0 mi East 5.8 mph - N/A   Partly Cloudy
11:54 PM 45.0 °F 40.6 °F 27.0 °F 49% 30.29 in 10.0 mi ENE 8.1 mph - N/A   Partly Cloudy